Location: Allen Fire Department Station 4
(33.1073°N, 96.6988°W)
Time: 10:18:22
(UTC+00:00)

Nadezhda 4 Rocket - Pass Details

Date: 03 December 2021
Orbit: 949 x 992 km, 82.9° (Epoch: 23 January)

Event Time Altitude Azimuth Distance (km) Brightness Sun altitude
Rises 12:11:36 0° 181° (S) 3,611 7.2 -12.9°
Reaches altitude 10° 12:14:04 10° 180° (S) 2,673 6.5 -12.4°
Maximum altitude 12:20:11 80° 95° (E) 977 4.1 -11.2°
Drops below altitude 10° 12:26:23 10° 8° (N) 2,714 6.2 -10.0°
Sets 12:28:55 0° 8° (N) 3,671 6.9 -9.5°
